Flag for Pakistan Weather past 2 weeks in Rawalpindi, Pakistan

Now
64 °F

Thunderstorms. Partly cloudy.


Feels Like: 64 °F
Forecast: 61 / 88 °F
Wind: 14 mph from Northeast

Location: Islamabad Airport

Current Time: Oct 24, 2014 at 1:11:53 AM

Latest Report: Oct 24, 2014 at 12:00 AM


Visibility: 2 mi

Pressure: 30.09 "Hg

Humidity: 78%

Dew point: 57 °F

Location of RawalpindiLocation

Historic Weather in Rawalpindi — Graph

°F

Rawalpindi temperature yesterday

Maximum temperature yesterday: 88 °F (at 3:00 PM)
Minimum temperature yesterday: 63 °F (at 5:00 AM)
Average temperature yesterday: 74 °F

Past Weeks' High & Low Weather Summary

 TemperatureHumidityPressure
High91 °F (Oct 12, 3:00 PM)94% (Oct 19, 6:00 AM)30.15 "Hg (Oct 19, 6:00 AM)
Low57 °F (Oct 16, 7:00 AM)28% (Oct 15, 8:00 PM)29.86 "Hg (Oct 10, 3:00 PM)
Average71 °F65%30.00 "Hg
* Reported Midnight between Oct 8 and Oct 9 — Midnight between Oct 23 and Oct 24, Rawalpindi, Weather by CustomWeather, © 2014

Note: Actual official high and low records may vary slightly from our data, if they occured in-between our weather recording intervals... More about our weather records

Advertising

Rawalpindi weather history for previous 24 hours

 ConditionsComfort  
Time TempWeatherWind HumidityBarometerVisibility
12:00 AM
Oct 24
64 °FThunderstorms. Partly cloudy.14 mph78%30.09 "Hg2 mi
10:00 PM
Oct 23
72 °FThunderstorms. Partly cloudy.40 mph73%30.04 "Hg1 mi
9:45 PMN/AThunderstorms.35 mphN/AN/A2 mi
9:00 PM73 °FPartly cloudy.12 mph69%30.01 "Hg2 mi
8:00 PM75 °FPassing clouds.12 mph65%29.95 "Hg2 mi
7:00 PM77 °FHaze.9 mph61%29.95 "Hg2 mi
6:00 PM81 °FPassing clouds.5 mph54%29.95 "Hg4 mi
5:00 PM84 °FPassing clouds.No wind48%29.95 "Hg4 mi
4:00 PM86 °FPassing clouds.No wind43%29.95 "Hg4 mi
3:00 PM88 °FPassing clouds.7 mph40%29.98 "Hg4 mi
2:00 PM84 °FPassing clouds.5 mph48%29.98 "Hg4 mi
1:00 PM82 °FPassing clouds.7 mph51%30.01 "Hg4 mi
12:00 PM82 °FPassing clouds.5 mph55%30.07 "Hg4 mi
11:00 AM77 °FHaze.5 mph61%30.07 "Hg4 mi
10:00 AM73 °FScattered clouds.5 mph69%30.07 "Hg3 mi
9:00 AM68 °FScattered clouds.5 mph73%30.07 "Hg2 mi
8:00 AM66 °FScattered clouds.5 mph78%30.07 "Hg2 mi
7:00 AM63 °FScattered clouds.No wind83%30.04 "Hg4 mi
6:00 AM63 °FPassing clouds.No wind83%30.04 "Hg4 mi
5:00 AM63 °FClear.No wind83%30.01 "Hg4 mi
3:00 AM64 °FPassing clouds.No wind83%30.01 "Hg4 mi
2:00 AM64 °FPassing clouds.No wind83%30.04 "Hg4 mi
1:00 AM66 °FPassing clouds.No wind78%30.04 "Hg4 mi
Weather by CustomWeather, © 2014

See weather overviewHow to use our weather pages